This is the latest recevied weather packets stored in our database for station/object KA1BMF-13. If no packets are shown the sender has not sent any weather packets the latest 10 day(s).
| Time | Temp. | Humidity | Pressure | Rain* | Wind** | Luminosity | Snow |
|---|---|---|---|---|---|---|---|
| 1788535818 | 25.56° C | 67% | 1010.9 hPa | 0 mm | - | 761 W/m² | - |
| 1788535222 | 25.56° C | 68% | 1011 hPa | 0 mm | - | 746 W/m² | - |
| 1788534618 | 25° C | 73% | 1011 hPa | 0 mm | - | 729 W/m² | - |
| 1788534018 | 25° C | 73% | 1011 hPa | 0 mm | - | 710 W/m² | - |
| 1788533419 | 25° C | 74% | 1011 hPa | 0 mm | - | 688 W/m² | - |
| 1788532819 | 25° C | 80% | 1011 hPa | 0 mm | - | 549 W/m² | - |
| 1788532218 | 25° C | 81% | 1011.1 hPa | 0 mm | - | 463 W/m² | - |
| 1788531616 | 24.44° C | 83% | 1011.2 hPa | 0 mm | - | 601 W/m² | - |
| 1788531019 | 23.89° C | 85% | 1011 hPa | 0 mm | - | 516 W/m² | - |
| 1788530419 | 23.89° C | 86% | 1011.1 hPa | 0 mm | - | 481 W/m² | - |
| 1788529819 | 22.78° C | 88% | 1011 hPa | 0 mm | - | 511 W/m² | - |
| 1788529219 | 21.67° C | 96% | 1011 hPa | 0 mm | - | 478 W/m² | - |
| 1788528617 | 21.67° C | 100% | 1011.1 hPa | 0 mm | - | 446 W/m² | - |
| 1788528017 | 22.22° C | 100% | 1011.1 hPa | 0 mm | - | 411 W/m² | - |
| 1788527419 | 21.67° C | 100% | 1011.2 hPa | 0 mm | - | 361 W/m² | - |
| 1788526820 | 21.67° C | 100% | 1011.1 hPa | 0 mm | - | 62 W/m² | - |
| 1788526220 | 21.67° C | 100% | 1011.1 hPa | 0 mm | - | 56 W/m² | - |
| 1788525620 | 21.67° C | 100% | 1011 hPa | 0 mm | - | 58 W/m² | - |
| 1788525020 | 21.11° C | 100% | 1011.1 hPa | 0 mm | - | 68 W/m² | - |
| 1788524421 | 21.11° C | 100% | 1011.1 hPa | 0 mm | - | 53 W/m² | - |
| 1788523821 | 21.11° C | 100% | 1011.1 hPa | 0 mm | - | 49 W/m² | - |
| 1788523221 | 20.56° C | 100% | 1011.1 hPa | 0 mm | - | 47 W/m² | - |
| 1788522621 | 20.56° C | 100% | 1010.9 hPa | 0 mm | - | 42 W/m² | - |
| 1788522019 | 20.56° C | 100% | 1010.8 hPa | 0 mm | - | 38 W/m² | - |
| 1788521416 | 20.56° C | 100% | 1010.8 hPa | 0 mm | - | 36 W/m² | - |
* Rain latest hour (hover to see other rain measurements)
** Current wind speed in m/s (hover to see current wind gust speed)